Overview Statistics Trail Chart Weather Telemetry Raw packets
 

This is the latest recevied weather packets stored in our database for station/object YB2VNE-13. If no packets are shown the sender has not sent any weather packets the latest 10 day(s).

<< 40 41 42 43 44 45 46 >>
Time Temp. Humidity Pressure Rain* Wind** Luminosity Snow
1788323150 28.89° C 56% 999 hPa - - 0 W/m² -
1788322826 29.44° C 55% 999 hPa - - 0 W/m² -
1788322502 29.44° C 59% 999 hPa - - 0 W/m² -
1788322178 28.89° C 57% 999 hPa - - 0 W/m² -
1788321855 28.89° C 59% 1000 hPa - - 0 W/m² -
1788321531 28.33° C 61% 1000 hPa - - 0 W/m² -
1788321207 28.33° C 60% 1000 hPa - - 0 W/m² -
1788320883 28.33° C 59% 1000 hPa - - 0 W/m² -
1788320559 28.33° C 61% 1000 hPa - - 0 W/m² -
1788320235 28.33° C 62% 1000 hPa - - 0 W/m² -
1788319911 28.33° C 63% 1000 hPa - - 0 W/m² -
1788319587 28.33° C 64% 1000 hPa - - 0 W/m² -
1788319263 28.33° C 64% 1000 hPa - - 0 W/m² -
1788318939 27.78° C 66% 1001 hPa - - 0 W/m² -
1788318615 28.33° C 65% 1001 hPa - - 0 W/m² -
1788318291 28.33° C 66% 1001 hPa - - 0 W/m² -
1788317967 28.33° C 68% 1001 hPa - - 0 W/m² -
1788317644 28.33° C 68% 1001 hPa - - 0 W/m² -
1788317320 27.78° C 69% 1001 hPa - - 0 W/m² -
1788316996 27.78° C 70% 1001 hPa - - 0 W/m² -
1788316672 28.33° C 70% 1001 hPa - - 0 W/m² -
1788316348 27.78° C 70% 1001 hPa - - 0 W/m² -
1788316024 27.78° C 66% 1001 hPa - - 0 W/m² -
1788315700 27.78° C 67% 1001 hPa - - 0 W/m² -
1788315376 27.78° C 69% 1001 hPa - - 0 W/m² -

* Rain since midnight (hover to see other rain measurements)
** Current wind speed in m/s (hover to see current wind gust speed)